Terminal Aerodrome Forecast
Issued by NWS

Home | Current Version | Previous Version | Text Only | Print | Product List | Glossary Off
Versions: 1 2 3 4 5 6 7 8 9 10 11 12 13 14 15

000
FTUS43 KTOP 201100
TAFMHK
TAF
KMHK 201120Z 2012/2112 25013KT P6SM SCT090
     FM202000 27008KT P6SM VCTS BKN040CB
     FM210200 34005KT P6SM BKN050=

USA.gov is the U.S. government's official web portal to all federal, state and local government web resources and services.